Regional Weather Roundup
Issued by NWS

Home | Current Version | Previous Version | Graphics & Text | Print | Product List | Glossary On
Versions: 1 2 3 4 5 6 7 8 9 10 11 12 13 14 15 16 17 18 19 20 21 22 23 24 25 26 27 28 29 30 31 32 33 34 35 36 37 38 39 40 41 42 43 44 45 46 47 48 49 50
000
ASUS43 KTOP 271008
RWRKS

WEATHER ROUNDUP FOR KANSAS
NATIONAL WEATHER SERVICE GOODLAND KS
500 AM CDT WED JUL 27 2016

NOTE:  "FAIR" INDICATES FEW OR NO CLOUDS BELOW 12,000 FEET WITH NO
SIGNIFICANT WEATHER AND/OR OBSTRUCTIONS TO VISIBILITY.

KSZ001>006-013>018-027>032-041>047-271100-
NORTHWEST KANSAS

CITY           SKY/WX    TMP DP  RH WIND       PRES   REMARKS
GOODLAND       CLOUDY    65  60  84 E12G21    30.11R
HAYS           CLOUDY    72  55  56 NE17G29   30.08R
HILL CITY      CLOUDY    66  61  84 E6        30.09S
RUSSELL        CLOUDY    73  59  61 N14       30.06R
$$

KSZ061>065-074>080-084>089-271100-
SOUTHWEST KANSAS

CITY           SKY/WX    TMP DP  RH WIND       PRES   REMARKS
DODGE CITY     MOCLDY    68  67  96 SE5       30.05R
ELKHART          N/A     69  64  84 NW6         N/A
GARDEN CITY    MOCLDY    71  67  87 CALM      30.06R
GREAT BEND     CLOUDY    72  64  78 CALM      30.03R
LIBERAL        CLOUDY    70  63  78 N3        30.06S
PRATT          CLEAR     69  67  94 SE6       30.01F
$$

KSZ066>073-081>083-090>101-271100-
SOUTHEAST KANSAS

CITY           SKY/WX    TMP DP  RH WIND       PRES   REMARKS
CHANUTE        CLOUDY    73  71  93 CALM      30.00R
COFFEYVILLE    CLOUDY    72  71  97 NE5       29.98R
HUTCHINSON     PTCLDY    69  68  96 E5        29.99F FOG
NEWTON         CLEAR     71  70  96 E3        30.01S
PARSONS        MOCLDY    71  70  96 CALM      30.00R
WICHITA INTL   PTCLDY    75  72  90 NE3       29.99R
WICHITA JABRA  CLEAR     71  71 100 CALM      30.00R FOG
WICHITA MCCONL CLEAR     74  71  92 E5        30.00R
WINFIELD       CLEAR     74  72  93 NE6       30.00R
$$

KSZ007>012-019>026-033>040-048>060-102>105-271100-
NORTHEAST KANSAS

CITY           SKY/WX    TMP DP  RH WIND       PRES   REMARKS
CONCORDIA      PTCLDY    71  66  84 E3        30.04F
EMPORIA        PTCLDY    70  69  97 NE3       30.01S
LAWRENCE       MOCLDY    67  66  97 NW3       30.01R
MANHATTAN      PTCLDY    69  67  93 N6        30.03R
MARYSVILLE     PTCLDY    64  64 100 W3        30.03F
OLATHE IND     CLEAR     70  68  93 CALM      30.01S
SALINA         CLEAR     73  68  84 N12       30.04R
TOPEKA BILLARD PTCLDY    69  67  93 CALM      30.01R
TOPEKA FORBES  MOCLDY    71  68  90 CALM      30.01R
$$




USA.gov is the U.S. government's official web portal to all federal, state and local government web resources and services.